This is the latest recevied weather packets stored in our database for station/object OH6HPS. If no packets are shown the sender has not sent any weather packets the latest 10 day(s).
| Time | Temp. | Humidity | Pressure | Rain* | Wind** | Luminosity | Snow |
|---|---|---|---|---|---|---|---|
| 1777626941 | 18.33° C | 47% | 1019.7 hPa | 0 mm | - | 661 W/m² | - |
| 1777626341 | 17.78° C | 46% | 1019.8 hPa | 0 mm | - | 645 W/m² | - |
| 1777625741 | 17.78° C | 46% | 1019.9 hPa | 0 mm | - | 610 W/m² | - |
| 1777625141 | 17.22° C | 48% | 1019.9 hPa | 0 mm | - | 621 W/m² | - |
| 1777624539 | 17.22° C | 49% | 1020.1 hPa | 0 mm | - | 623 W/m² | - |
| 1777623939 | 17.22° C | 50% | 1020.2 hPa | 0 mm | - | 614 W/m² | - |
| 1777623337 | 16.67° C | 51% | 1020.2 hPa | 0 mm | - | 600 W/m² | - |
| 1777622735 | 16.11° C | 53% | 1020.4 hPa | 0 mm | - | 582 W/m² | - |
| 1777622135 | 16.11° C | 52% | 1020.4 hPa | 0 mm | - | 568 W/m² | - |
| 1777621535 | 16.11° C | 52% | 1020.4 hPa | 0 mm | - | 554 W/m² | - |
| 1777620936 | 15.56° C | 53% | 1020.5 hPa | 0 mm | - | 542 W/m² | - |
| 1777620334 | 15.56° C | 54% | 1020.5 hPa | 0 mm | - | 526 W/m² | - |
| 1777619735 | 15° C | 56% | 1020.6 hPa | 0 mm | - | 505 W/m² | - |
| 1777619135 | 14.44° C | 59% | 1020.6 hPa | 0 mm | - | 491 W/m² | - |
| 1777618533 | 13.89° C | 60% | 1020.6 hPa | 0 mm | - | 475 W/m² | - |
| 1777617933 | 13.89° C | 62% | 1020.7 hPa | 0 mm | - | 456 W/m² | - |
| 1777617334 | 13.33° C | 65% | 1020.5 hPa | 0 mm | - | 434 W/m² | - |
| 1777616732 | 12.78° C | 66% | 1020.6 hPa | 0 mm | - | 410 W/m² | - |
| 1777616133 | 11.67° C | 68% | 1020.7 hPa | 0 mm | - | 392 W/m² | - |
| 1777615532 | 11.67° C | 69% | 1020.7 hPa | 0 mm | - | 366 W/m² | - |
| 1777614934 | 11.11° C | 70% | 1020.7 hPa | 0 mm | - | 347 W/m² | - |
| 1777614331 | 10.56° C | 72% | 1020.8 hPa | 0 mm | - | 292 W/m² | - |
| 1777613733 | 10° C | 73% | 1020.8 hPa | 0 mm | - | 241 W/m² | - |
| 1777613131 | 9.44° C | 75% | 1020.9 hPa | 0 mm | - | 190 W/m² | - |
| 1777612531 | 8.89° C | 77% | 1020.9 hPa | 0 mm | - | 218 W/m² | - |
* Rain latest hour (hover to see other rain measurements)
** Current wind speed in m/s (hover to see current wind gust speed)